Regional Weather Roundup
Issued by NWS

Home | Current Version | Previous Version | Text Only | Print | Product List | Glossary Off
Versions: 1 2 3 4 5 6 7 8 9 10 11 12 13 14 15 16 17 18 19 20 21 22 23 24 25 26 27 28 29 30 31 32 33 34 35 36 37 38 39 40 41 42 43 44 45 46 47 48 49 50

000
ASUS45 KBOI 232010
RWRID

IDAHO REGIONAL WEATHER ROUNDUP
NATIONAL WEATHER SERVICE BOISE ID
100 PM MST THU NOV 23 2017

NOTE: "FAIR" INDICATES FEW OR NO CLOUDS BELOW 12000 FEET
WITH NO SIGNIFICANT WEATHER AND/OR OBSTRUCTIONS TO VISIBILITY

IDZ012-014-232100-
SOUTHWEST IDAHO


CITY           SKY/WX    TMP DP  RH WIND       PRES   REMARKS
BOISE          CLOUDY    61  45  55 SE7       30.02F
CALDWELL       CLOUDY    51  50  96 N3        30.02F FOG
MOUNTAIN HOME  CLOUDY    59  48  67 E12       30.04F
$$

IDZ016-017-232100-
SOUTHCENTRAL IDAHO


CITY           SKY/WX    TMP DP  RH WIND       PRES   REMARKS
BURLEY         CLOUDY    65  41  41 S16       30.09F
JEROME         CLOUDY    61  42  49 S5        30.11F
TWIN FALLS     CLOUDY    61  46  57 S22G29    30.10F
$$

IDZ019>023-232100-
SOUTHEAST IDAHO


CITY           SKY/WX    TMP DP  RH WIND       PRES   REMARKS
IDAHO FALLS    CLOUDY    56  43  61 SW12      30.10F
POCATELLO      MOSUNNY   65  41  41 SW23G30   30.12F
REXBURG        SUNNY     56  42  59 SW10G18   30.08F
$$

IDZ006-010-011-018-031-032-232100-
CENTRAL IDAHO MOUNTAINS


CITY           SKY/WX    TMP DP  RH WIND       PRES   REMARKS
MCCALL         CLOUDY    57  41  55 S16G23    30.01F
HAILEY         PTSUNNY   55  45  67 SE9       30.12F
STANLEY          N/A     52  34  50 SW9G17    30.12F
SALMON         CLOUDY    39  38  96 CALM      29.98F
CHALLIS        MOSUNNY   64  33  31 SW15G22   29.99F
$$

IDZ002-004-006-007-026-232100-
NORTHERN IDAHO


CITY           SKY/WX    TMP DP  RH WIND       PRES   REMARKS
LEWISTON       CLOUDY    56  53  90 E6        29.82F
LOWELL           N/A     52  47  83 VRB3      29.87F
COEUR D`ALENE  CLOUDY    60  49  66 SW30G40   29.72F
MULLAN PASS    LGT RAIN  42  40  92 SW15G40   29.77F VSB 1
$$



USA.gov is the U.S. government's official web portal to all federal, state and local government web resources and services.